Погода в Курске

Погода в Курске : погода сейчас, прогноз погоды и архив. Всё, что Вы хотите узнать о погоде в Курске!

Хотите узнать прогноз погоды в Курске? Тогда Вам сюда: Погода в Курске

Поиск расширенной информации на нашем сайте:

Другие новости

Новости СМИ2

Главная страница сайта

Новости сайта

03.07.2017

Напоминаем, что на нашем специализированном сайте Метеоцентр.Азия вы можете получить высокодетализированные автоматические прогнозы погоды по пунктам России, СНГ и мира в авиационном формате (включающие направление и скорость ветра, видимость, явления погоды, количество и форму облачности, нижнюю и верхнюю границу облачности).


Погода в Курске - сегодня

Время (UTC), дата Ветер
(°,м/с) 
Видим.   Явления Облачность Т
(°С)
Тd
(°С)
f(%) Тe
(°С)
Pmin
(гПа)
dP
(гПа)
Po
(мм)
O2
(г/м3)
Тmin Tmax R s Состояние
почвы
21 10.10.18 280 (З) 10 км    4/0 верхняя 
[Ci fib]
+9.3 +7.3 87 +9  1027.4  0.1  748  290           
00 11.10.18 320 (СЗ) 10 км    ясно 
+7.4 +6.1 91 +8  1027.3  -0.3  748  292           
09 11.10.18 350 (С) 10 км    10/10 1000 м 
[Sc]
+11.1 +7.7 80 +12  1029.3  749  289           
12 11.10.18 360 (С) 10 км    10/10 1000 м 
[Sc]
+13.3 +7.7 69 +15  1029.1  0.1  749  287           
15 11.10.18 340 (С) 10 км    3/0 верхняя 
[Ci fib]
+12.3 +7.6 73 +14  1029.3  -0.1  750  288           
21 11.10.18 010 (С) 10 км    ясно 
+9.4 +4.6 72 +10  1032.5  1.4  752  292           
00 12.10.18 040 (СВ) 10 км    ясно 
+7.5 +4 78 +8  1033.9  1.2  753  295           
09 12.10.18 110 (В) 10 км    ясно 
+13.6 +1.1 42 +15  1037.2  0.9  755  290           
12 12.10.18 060 (СВ) 10 км    ясно 
+15.1 +1.1 39 +16  1037.2  -0.7  755  288           
15 12.10.18 тихо ()   10 км    1/0 верхняя 
[Ci fib]
+11.4 +2.3 54 +11  1035.7  -0.9  754  291           
21 12.10.18 тихо ()   10 км    ясно 
+7.6 +2.2 69 +8  1035.8  0.4  754  295           
00 13.10.18 280 (З) 10 км    ясно 
+6.3 +2.8 78 +7  1035.3  -0.7  753  296           
09 13.10.18 290 (З) 10 км    3/0 верхняя 
[Ci fib]
+15.3 +5.1 51 +16  1033.4  -0.7  753  286           
12 13.10.18 300 (СЗ) 10 км    3/0 верхняя 
[Ci fib]
+17.4 +3 38 +18  1032.2  -0.9  752  284           
15 13.10.18 280 (З) 10 км    3/0 верхняя 
[Ci fib]
+13.7 +3.9 52 +15  1031.3  -1.3  751  288           
21 13.10.18 300 (СЗ) 10 км    ясно 
+7.9 +3.5 74 +9  1031.2  -0.3  751  293           
00 14.10.18 320 (СЗ) 10 км    ясно 
+7 +2.8 75 +8  1031  -0.2  750  294           
09 14.10.18 300 (СЗ) 10 км    8/0 верхняя 
[Ci]
+15.6 +9 65 +16  1029.6  750  284           
12 14.10.18 300 (СЗ) 10 км    9/0 верхняя 
[Ci]
+18.2 +9.2 56 +19  1028.3  -1  749  281           
15 14.10.18 320 (СЗ) 10 км    8/1 1000 м верхняя 
[Sc|Ci fib]
+13.9 +9.5 75 +16  1028.4  -0.3  749  285           
21 14.10.18 340 (С) 10 км    6/0 верхняя 
[Ci fib]
+11.4 +8.7 83 +12  1029  0.1  749  288           
00 15.10.18 320 (СЗ) 10 км    4/0 верхняя 
[Ci fib]
+10.5 +8.8 89 +12  1029.3  0.2  749  289           
09 15.10.18 320 (СЗ) 10 км    1/0 верхняя 
[Ci fib]
+18.8 +10.2 57 +21  1029.2  0.2  750  281           
12 15.10.18 350 (С) 10 км    1/0 верхняя 
[Ci fib]
+20.5 +8 44 +21  1028.6  -0.5  750  280           
15 15.10.18 330 (СЗ) 10 км    3/0 средняя, верхняя 
[Ac lent|Ci fib]
+16 +9.6 66 +18  1028.8  -0.2  749  284           
Время (UTC), дата Ветер
(°,м/с) 
Видим.   Явления Облачность Т
(°С)
Тd
(°С)
f(%) Тe
(°С)
Pmin
(гПа)
dP
(гПа)
Po
(мм)
O2
(г/м3)
Тmin Tmax R s Состояние
почвы

Для получения пояснительной информации подведите курсор к названию столбца.

ПОГОДА в Курске - архив

Всё, что Вы хотите узнать о погоде в Курске - удобно и подробно!

Выберите нужную дату (начиная с 1 января 2015* года) и нажмите кнопку "Найти".
Будут отображены архивные сводки погоды по пункту Курск, начиная с указанной даты.


Отображать данные в формате CSV (для использования в таблицах Excel)


Внимание! Наш архив погоды предназначен исключительно для личного некоммерческого использования в познавательных целях. Если Вам необходимы официальные справки о состоянии погоды (для производственных, юридических, коммерческих и т.п. целей), обращайтесь в органы Росгидромета.

*Примечание: данная дата относится к архиву по метеостанциям СССР (Россия, СНГ, Балтия).
Архив по метеостанциям Зарубежной Европы и Азии (кроме Китая) хранится 10 дней, по другим регионам земного шара (Китай, Африка, Америка, Австралия, Океания) - 1 день.

Курск - район местоположения метеостанции


Название, широта, долгота, высота метеостанции:
Курск 51.8°ш. 36.2°д. 247 м над ур. моря [Российская Федерация]

Дополнительная информация

В oтличие oт бoльшинства пoгoдных сайтoв мы публикуем пoдрoбную метеoинфoрмацию в детальнoм прoфессиoнальнoм фoрмате.

Характеристики температуры и влажнoсти вoздуха измеряются на высoте 2 м в тени вдали oт зданий и деревьев.
Скoрoсть ветра измеряется на высoте 10 м (на урoвне рoста челoвека скoрoсть ветра ниже в 1.5-2 раза). Если метеoстанция нахoдится в гoрoде или в лесу, тo скoрoсть ветра занижена на 2-4 м/с пo сравнению с oткрытым местoм. Скoрoсть ветра над акватoриями крупных рек и oзёр, а также на вершинах хoлмoв на 2-5 м/с выше, чем в oбычных услoвиях.
Атмoсфернoе давление в разных тoчках местнoсти мoжет значительнo oтличаться oт давления на метеoстанции, в зависимoсти oт услoвий рельефа (при пoдъёме на 10 м давление пoнижается примернo на 1 мм рт.ст.).